www.pogodaiklimat.ru

Погода и климат >> Архив погоды >> Индия >> Amritsar


ПОГОДА в Amritsar

  • Прогноз погоды в Amritsar
  • Монитор погоды в Amritsar
  • Климат города

АРХИВ ПОГОДЫ в Amritsar

Время (UTC), дата Ветер
(напр.,м/с)
 
Видим.   Явления Облачность Т
(С)
Тd
(С)
f
(%)
Тe
(С)
Тes
(С)
Комфортность P
(гПа)
Po
(гПа)
Тmin
(С)
Tmax
(С)
R
(мм)
R24
(мм)
S
(см)
06 9.12 штиль 0 2000 м мгла {туман} ясно +17.4 +10.3 63 +17 +26 1016.8 1017.0
09 9.12 нст 1 2000 м мгла 3/0
[Ac trans]
+20.6 +10.3 52 +23 +28 комфорт 1013.9 1014.0
12 9.12 штиль 0 2000 м мгла 4/4 1200 м
[Sc diur, vesp]
+18.4 +10.6 60 +19 +19 1013.2 1013.0 +21.3
15 9.12 штиль 0 2000 м дымка 4/4 1200 м
[Sc diur, vesp]
+13.8 +9.9 77 +13 +13 1014.5 1015.0
18 9.12 штиль 0 1000 м дымка 4/4 1200 м
[Sc diur, vesp]
+12.6 +11.1 91 +12 +12 1014.7 1015.0
21 9.12 штиль 0 1000 м дымка 4/4 1200 м
[Sc diur, vesp]
+12.8 +12.1 96 +12 +12 1014.4 1014.0
00 10.12 С 2 1000 м дымка 8/4 1200 м
[Sc diur, vesp Ac trans]
+13.2 +11.3 88 +12 +12 1014.7 1015.0
03 10.12 нст 2 1000 м дымка 10/5 1200 м
[Sc diur, vesp As op]
+12.8 +11.3 91 +12 +12 1016.1 1016.0 +11.0 +21.3
06 10.12 штиль 0 1000 м дымка 8/4 1200 м
[Sc diur, vesp As op]
+14.4 +11.4 82 +14 +17 1016.9 1017.0
09 10.12 СВ 3 1000 м слабый дождь {морось} 10/5 1200 м
[Sc diur, vesp As op]
+15.2 +11.9 81 +14 +15 1015.1 1015.0 0.1
12 10.12 СВ 3 2000 м дымка {дождь, морось} 9/4 1200 м
[Sc diur, vesp Ac As]
+15.6 +12.3 81 +15 +15 1014.9 1015.0 +16.5 0.1
15 10.12 нст 1 2000 м дымка {дождь} 10/5 1200 м
[Sc diur, vesp As op]
+13.2 +11.7 91 +13 +13 1016.9 1017.0 1
18 10.12 СВ 2 2000 м дымка {дождь} 10/5 900 м
[Sc diur, vesp As op]
+13.0 +11.9 93 +12 +12 1016.9 1017.0 1
21 10.12 штиль 0 2000 м дымка 8/4 900 м
[Sc diur, vesp Ac As]
+12.2 +11.4 95 +12 +12 1016.0 1016.0 1
00 11.12 СЗ 2 2000 м дымка 3/3 900 м
[Sc diur, vesp]
+9.0 +9.0 100 +7 +7 1016.4 1016.0 1
03 11.12 штиль 0 2000 м дымка ясно +10.8 +9.2 90 +10 +11 1017.7 1018.0 +8.4 +16.5 1
06 11.12 СВ 3 4000 м мгла ясно +18.0 +10.1 60 +18 +24 1018.2 1018.0
09 11.12 С 2 4000 м 4/4 1200 м
[Sc diur, vesp]
+21.0 +7.5 42 +23 +26 комфорт 1015.3 1015.0
12 11.12 штиль 0 4000 м 4/4 1200 м
[Sc diur, vesp]
+18.4 +9.8 57 +19 +19 1014.6 1015.0 +21.4
15 11.12 нст 1 4000 м дымка 4/4 1200 м
[Sc diur, vesp]
+14.0 +10.2 78 +14 +14 1017.0 1017.0
18 11.12 С 3 4000 м дымка 4/4 1200 м
[Sc diur, vesp]
+13.2 +10.9 86 +12 +12 1017.2 1017.0
21 11.12 нст 1 4000 м дымка 5/5 1200 м
[Sc diur, vesp]
+11.8 +11.0 95 +12 +12 1016.7 1017.0
00 12.12 нст 1 4000 м дымка 5/5 1200 м
[Sc diur, vesp]
+11.2 +10.0 92 +11 +11 1016.9 1017.0
03 12.12 В 2 2000 м дымка 6/4 1200 м
[Sc diur, vesp Ac As]
+12.6 +10.3 86 +12 +12 1018.7 1019.0 +10.6 +21.4
06 12.12 СВ 4 4000 м дымка 8/4 1200 м
[Sc diur, vesp Ac As]
+13.6 +10.5 82 +12 +14 1020.6 1021.0
09 12.12 СВ 3 4000 м 9/5 1200 м
[Sc diur, vesp Ac As]
+15.6 +9.9 69 +15 +16 1018.9 1019.0
12 12.12 В 3 4000 м 9/4 1200 м
[Sc diur, vesp Ac As]
+13.8 +8.7 71 +13 +13 1019.1 1019.0 +16.1
15 12.12 СВ 3 2000 м дымка 3/3 1050 м
[Sc diur, vesp]
+12.0 +10.1 88 +11 +11 1020.6 1021.0
18 12.12 штиль 0 2000 м дымка 3/3 1050 м
[Sc diur, vesp]
+10.0 +9.2 95 +9 +9 1021.0 1021.0
21 12.12 штиль 0 2000 м дымка 3/3 1050 м
[Sc diur, vesp]
+8.8 +7.8 93 +8 +8 1021.2 1021.0
00 13.12 штиль 0 2000 м дымка 3/3 1050 м
[Sc diur, vesp]
+7.1 +7.1 100 +6 +6 1021.5 1022.0
03 13.12 СЗ 2 2000 м дымка ясно +8.6 +6.4 86 +7 +8 1023.0 1023.0 +6.0 +16.1
06 13.12 нст 1 4000 м ясно +16.4 +10.8 69 +17 +25 1023.2 1023.0
09 13.12 ЮВ 3 4000 м 4/4 1200 м
[Sc diur, vesp]
+18.0 +10.1 60 +18 +21 1020.9 1021.0
12 13.12 штиль 0 4000 м 1/1 1200 м
[Sc diur, vesp]
+16.2 +9.3 64 +16 +16 1020.3 1020.0 +19.3
15 13.12 штиль 0 4000 м дымка ясно +11.0 +7.7 80 +10 +10 1022.7 1023.0
18 13.12 штиль 0 4000 м дымка ясно +9.4 +7.7 89 +9 +9 1023.4 1023.0
21 13.12 штиль 0 2000 м дымка ясно +8.2 +7.4 95 +7 +7 1023.2 1023.0
00 14.12 штиль 0 2000 м дымка ясно +6.6 +6.6 100 +5 +5 1023.5 1024.0
03 14.12 штиль 0 500 м туман поземный ясно +7.0 +5.7 91 +6 +7 1025.0 1025.0 +5.3 +19.3
06 14.12 СЗ 2 4000 м мгла ясно +16.0 +7.6 57 +16 +23 1025.4 1025.0
09 14.12 СЗ 4 4000 м ясно +19.4 +7.2 45 +20 +24 1022.7 1023.0
12 14.12 штиль 0 4000 м ясно +16.4 +9.5 64 +16 +16 1022.7 1023.0 +20.3
15 14.12 штиль 0 4000 м дымка ясно +12.0 +10.1 88 +11 +11 1024.4 1024.0
18 14.12 штиль 0 2000 м дымка ясно +9.8 +8.2 90 +9 +9 1024.3 1024.0
21 14.12 штиль 0 2000 м дымка ясно +8.6 +7.8 95 +8 +8 1023.7 1024.0
00 15.12 штиль 0 2000 м дымка ясно +6.8 +6.8 100 +6 +6 1022.9 1023.0
03 15.12 нст 1 2000 м дымка ясно +8.0 +5.8 86 +7 +8 1024.3 1024.0 +5.6 +20.3
06 15.12 СЗ 3 4000 м мгла ясно +16.2 +7.4 56 +16 +21 1024.4 1024.0
09 15.12 СЗ 3 4000 м мгла ясно +20.2 +5.7 39 +21 +25 комфорт 1022.0 1022.0
12 15.12 штиль 0 4000 м мгла ясно +17.6 +4.6 42 +18 +18 1021.9 1022.0 +21.4
15 15.12 штиль 0 4000 м дымка ясно +12.0 +7.9 76 +12 +12 1024.0 1024.0
18 15.12 нст 1 4000 м дымка ясно +9.8 +7.7 87 +9 +9 1024.3 1024.0
21 15.12 штиль 0 2000 м дымка ясно +6.8 +5.9 94 +6 +6 1023.8 1024.0
00 16.12 штиль 0 2000 м дымка ясно +5.3 +5.3 100 +4 +4 1023.2 1023.0
03 16.12 штиль 0 2000 м дымка ясно +6.0 +5.1 94 +5 +6 1024.7 1025.0 +4.0 +21.4

 

Местоположение метеостанции Amritsar (Punjab, Индия): широта 31.63 долгота 74.87 высота над уровнем моря 234 м.

В архиве по умолчанию представлена погода в Amritsar за последнюю неделю. Архивные данные за месяц целиком и за предыдущие месяцы, начиная с января 2011 года, Вы можете получить, выбрав интересующий диапазон дат из раскрывающегося списка и нажав кнопку "Ввод!".


*Определитесь, кто Вы:
робот инопланетянин человек

Внимание! Время в таблицах - всемирное. Для получения местного времени необходимо прибавить поправку, которая в Amritsar равна 5.5 ч.

Смотрите также архив погоды в соседних городах и на ближайших метеорологических станциях:

Погода в Lahore City (Пакистан) (52 км)
Погода в Sialkot (Пакистан) (102 км)
Погода в Jammu (Jammu and Kashmir, Индия) (116 км)
Погода в Ludhiana (Punjab, Индия) (132 км)
Погода в Una (Himachal Pradesh, Индия) (134 км)
Погода в Kangra (Himachal Pradesh, Индия) (142 км)
Погода в Katra (Jammu and Kashmir, Индия) (151 км)
Погода в Dharamsala (Himachal Pradesh, Индия) (159 км)
Погода в Batote (Jammu and Kashmir, Индия) (169 км)
Погода в Faisal Abad (Пакистан) (169 км)

Пояснения к столбцам:

Ветер - указаны скорость ветра в м/с - средняя за 10 мин, порывы в срок и между сроками (в фигурных скобках) и направление, откуда дует ветер: С - северный, СВ - северо-восточный, В - восточный, ЮВ - юго-восточный, Ю - южный, ЮЗ - юго-западный, З - западный, СЗ - северо-западный.
Видимость - горизонтальная дальность видимости в метрах или километрах. При видимости от 1 до 10 км при отсутствии осадков обычно наблюдается дымка, при ухудшении видимости до 1 км и менее - туман. В сухую погоду видимость может ухудшаться дымом, пылью или мглою.
Явления - указаны атмосферные явления, наблюдавшиеся в срок или в последний час перед сроком; фигурными скобками обозначены явления, наблюдавшиеся между сроками (за 1-3 часа до срока); квадратными скобками обозначены град или гололедные отложения с указанием их диаметра в мм.
Облачность - указаны через наклонную черту общая и нижняя облачность в баллах и высота нижней границы облаков в метрах; квадратными скобками обозначены формы облаков: Ci - перистые, Cs - перисто-слоистые, Cc - перисто-кучевые, Ac - высококучевые, As - высокослоистые, Sc - слоисто-кучевые, Ns - слоисто-дождевые, Cu - кучевые, Cb - кучево-дождевые. Подробнее классификацию облаков см. в Атласе облаков (PDF).
T - Температура воздуха - температура, измеренная на высоте 2 м над землей.
Td - Температура точки росы - температура, при понижении до которой содержащийся в воздухе водяной пар достигнет насыщения.
f - Относительная влажность воздуха - влажноcть воздуха, измеренная на высоте 2 м над землей.
Te - Эффективная температура - температура, которую ощущает одетый по сезону человек в тени. Характеристика душности погоды. При расчете учитывается влияние влажности воздуха и скорости ветра на теплоощущения человека.
Tes - Эффективная температура на солнце - температура, которую ощущает человек, с поправкой на солнечный нагрев. Характеристика знойности погоды. Зависит от высоты солнца над горизонтом, облачности и скорости ветра. Ночью, в пасмурную погоду, а также при ветре 12 м/с и более поправка равна нулю.
P - Атмосферное давление - приведенное к уровню моря атмосферное давление.
Po - Атмосферное давление - измеренное на уровне метеостанции атмосферное давление.
Tmin - Минимальная температура - минимум температуры воздуха на высоте 2 м над землей.
Tmax - Максимальная температура - максимум температуры воздуха на высоте 2 м над землей.
R - Количество осадков - Количество выпавших осадков за период времени, мм. При наведении курсора мыши на число - период времени, за который выпало указанное количество осадков.
R24 - Количество осадков - Количество выпавших осадков за 24 часа, мм.
S - Снежный покров - Высота снежного покрова, см. При наведении курсора мыши на число - состояние снежного покрова и степень покрытия местности в баллах.